DW7658 Weather Reports


time (UTC)temp
F
wind
direction
speed
knots
gust
knots
rain 1hr
in
rain 24hr
in
rain mn
in
humidity
%
barometer
mb
20260508200027 73 48 1.7 6.1 0.00 0.00 0.00 39 1005.7
20260508194514 74 337 0.9 3.5 0.00 0.00 0.00 39 1005.9
20260508193101 74 335 1.7 7.8 0.00 0.00 0.00 40 1006.0
20260508191548 74 274 0.0 2.6 0.00 0.00 0.00 39 1006.3
20260508190030 72 269 0.9 6.1 0.00 0.00 0.00 42 1006.5
20260508184530 74 101 3.5 8.7 0.00 0.00 0.00 40 1006.8
20260508183015 74 224 0.9 5.2 0.00 0.00 0.00 40 1007.0
20260508181514 74 200 1.7 4.3 0.00 0.00 0.00 40 1007.2
20260508180010 73 122 0.0 5.2 0.00 0.00 0.00 44 1007.5
20260508174508 72 276 1.7 4.3 0.00 0.00 0.00 42 1007.8
20260508173005 73 57 0.9 5.2 0.00 0.00 0.00 45 1008.1
20260508171504 73 270 0.9 3.5 0.00 0.00 0.00 42 1008.3
20260508170101 72 174 0.0 5.2 0.00 0.00 0.00 46 1008.6
20260508164558 72 271 0.9 8.7 0.00 0.00 0.00 41 1008.9
20260508163047 71 276 0.0 3.5 0.00 0.00 0.00 45 1009.1
20260508161541 70 291 0.9 4.3 0.00 0.00 0.00 45 1009.3
20260508160040 69 252 0.9 5.2 0.00 0.00 0.00 52 1009.5
20260508154535 69 250 0.9 5.2 0.00 0.00 0.00 49 1009.8
20260508153033 68 96 0.0 7.8 0.00 0.00 0.00 51 1010.0
20260508151538 68 284 1.7 7.8 0.00 0.00 0.00 47 1010.1
20260508150038 67 263 0.0 4.3 0.00 0.00 0.00 49 1010.3
20260508144540 67 79 0.0 3.5 0.00 0.00 0.00 50 1010.4
20260508143025 66 70 0.9 3.5 0.00 0.00 0.00 50 1010.5
20260508141520 65 65 0.9 4.3 0.00 0.00 0.00 50 1010.6
20260508140007 64 11 0.0 2.6 0.00 0.00 0.00 55 1010.7
20260508134504 62 166 0.0 1.7 0.00 0.00 0.00 56 1010.7
20260508133100 60 278 0.0 3.5 0.00 0.00 0.00 58 1010.7
20260508131600 59 240 0.0 3.5 0.00 0.00 0.00 62 1010.7
20260508130052 56 250 0.0 3.5 0.00 0.00 0.00 63 1010.8
20260508124548 54 309 0.0 3.5 0.00 0.00 0.00 71 1010.8
20260508123033 51 56 0.0 1.7 0.00 0.00 0.00 76 1010.7
20260508121527 47 70 0.0 0.9 0.00 0.00 0.00 84 1010.7
20260508120023 45 31 0.0 0.9 0.00 0.00 0.00 84 1010.6
20260508114530 44 257 0.0 0.0 0.00 0.00 0.00 86 1010.5
20260508113018 43 77 0.0 2.6 0.00 0.00 0.00 87 1010.4
20260508111513 42 131 0.0 2.6 0.00 0.00 0.00 89 1010.4
20260508110008 41 41 0.0 0.9 0.00 0.00 0.00 90 1010.2
20260508104507 40 11 0.0 0.9 0.00 0.00 0.00 90 1010.2
20260508103108 39 33 0.0 0.9 0.00 0.00 0.00 91 1010.1
20260508101551 39 167 0.0 0.0 0.00 0.00 0.00 91 1010.0
20260508100048 39 167 0.0 0.0 0.00 0.00 0.00 91 1010.0
20260508094538 38 77 0.0 0.9 0.00 0.00 0.00 92 1010.0
20260508093038 38 94 0.0 0.0 0.00 0.00 0.00 92 1010.1
20260508091536 38 94 0.0 0.0 0.00 0.00 0.00 92 1010.0
20260508090044 38 94 0.0 0.0 0.00 0.00 0.00 92 1009.9
20260508084534 38 94 0.0 0.0 0.00 0.00 0.00 92 1009.8
20260508083038 38 95 0.0 0.0 0.00 0.00 0.00 92 1009.9
20260508081538 39 94 0.0 0.0 0.00 0.00 0.00 92 1009.7
20260508080031 39 95 0.0 0.0 0.00 0.00 0.00 92 1009.8
20260508074522 39 94 0.0 0.0 0.00 0.00 0.00 92 1009.6
20260508073018 38 95 0.0 0.0 0.00 0.00 0.00 92 1009.7
20260508071517 39 94 0.0 0.0 0.00 0.00 0.00 92 1009.9
20260508070016 39 94 0.0 0.0 0.00 0.00 0.00 92 1009.9
20260508064614 39 94 0.0 0.0 0.00 0.00 0.00 91 1009.9
20260508063016 39 95 0.0 0.0 0.00 0.00 0.00 91 1010.2
20260508061510 40 95 0.0 0.0 0.00 0.00 0.00 91 1010.3
20260508060009 40 95 0.0 0.0 0.00 0.00 0.00 91 1010.3
20260508054625 39 94 0.0 0.0 0.00 0.00 0.00 90 1010.2
20260508053108 40 94 0.0 0.0 0.00 0.00 0.00 90 1010.1
20260508051559 40 94 0.0 0.0 0.00 0.00 0.00 90 1010.1
20260508050056 40 95 0.0 0.0 0.00 0.00 0.00 90 1010.2
20260508044551 40 94 0.0 0.0 0.00 0.00 0.00 89 1010.1
20260508043055 41 94 0.0 0.0 0.00 0.00 0.00 89 1010.1
20260508041549 40 94 0.0 0.0 0.00 0.00 0.00 89 1010.0
20260508040054 41 95 0.0 0.0 0.00 0.00 0.00 88 1010.1
20260508034531 41 95 0.0 0.0 0.00 0.00 0.00 88 1010.1
20260508033032 41 94 0.0 0.0 0.00 0.00 0.00 87 1010.2
20260508031519 42 95 0.0 0.0 0.00 0.00 0.00 86 1010.1
20260508030018 43 95 0.0 0.0 0.00 0.00 0.00 85 1010.1
20260508024520 43 95 0.0 0.0 0.00 0.00 0.00 83 1010.0
20260508023015 43 55 0.0 0.0 0.00 0.00 0.00 82 1010.0
20260508021515 44 56 0.0 0.0 0.00 0.00 0.00 80 1010.2
20260508020016 44 55 0.0 0.0 0.00 0.00 0.00 78 1010.0
20260508014515 45 53 0.0 0.0 0.00 0.00 0.00 77 1009.8
20260508013014 45 54 0.0 0.0 0.00 0.00 0.00 72 1009.8
20260508011504 46 53 0.0 0.0 0.00 0.00 0.00 71 1009.7
20260508010004 48 54 0.0 0.0 0.00 0.00 0.00 69 1009.5
20260508004502 49 54 0.0 0.0 0.00 0.00 0.00 66 1009.4
20260508003101 50 54 0.0 0.0 0.00 0.00 0.00 61 1009.2
20260508001601 52 53 0.0 0.0 0.00 0.00 0.00 58 1009.1
20260508000120 53 54 0.0 0.0 0.00 0.00 0.00 54 1009.0
20260507234558 54 54 0.0 0.0 0.00 0.00 0.00 51 1008.9
20260507233058 55 54 0.0 0.0 0.00 0.00 0.00 49 1008.7
20260507231545 56 41 0.0 0.9 0.00 0.00 0.00 54 1009.0
20260507230040 57 11 0.0 1.7 0.00 0.00 0.00 47 1008.8
20260507224529 58 20 0.0 0.9 0.00 0.00 0.00 43 1008.8
20260507223029 59 295 0.0 3.5 0.00 0.00 0.00 46 1008.7
20260507221527 60 314 0.0 3.5 0.00 0.00 0.00 44 1008.9
20260507220026 62 61 0.0 2.6 0.00 0.00 0.00 42 1008.9
20260507214528 60 105 0.0 2.6 0.00 0.00 0.00 44 1008.9
20260507213024 61 201 0.0 1.7 0.00 0.00 0.00 46 1008.9
20260507211532 62 194 0.0 4.3 0.00 0.00 0.00 42 1008.7
20260507210023 64 307 0.0 0.9 0.00 0.00 0.00 42 1008.7
20260507204512 64 278 0.0 2.6 0.00 0.00 0.00 43 1008.7
20260507203013 64 110 0.0 7.0 0.00 0.00 0.00 42 1008.5
20260507201515 64 255 0.0 1.7 0.00 0.00 0.00 44 1008.6